Dewpoint
17 10 13 22 26 25 35 34 36 37 37 18 17 22 29 33 32 38 51 56 55 57 59 62 63 66 68 72 75 76 77 77 75 75 74 71 69 68 68 70 72 72 72 73
12 9 12 16 21 22 25 31 33 35 29 18 19 23 23 31 32 32 42 54 54 54 60 63 67 67 69 72 75 77 77 76 76 75 76 75 73 69 69 72 72 72 74 74
10 10 10 10 16 20 24 23 22 21 20 19 18 23 26 32 28 30 30 47 55 55 60 64 66 68 68 72 75 77 77 76 75 76 74 73 73 73 71 72 75 75 74 75
9 8 8 7 12 18 24 20 21 20 20 15 22 22 35 36 33 30 32 34 46 55 62 65 67 69 69 71 74 77 77 76 76 75 74 73 69 69 72 76 76 75 73 73
11 7 5 10 11 11 17 19 17 18 18 17 19 24 31 33 40 24 35 40 41 56 61 63 64 68 69 70 73 76 77 76 76 74 75 73 73 72 73 75 75 75 75 73
10 9 4 5 7 9 14 13 19 18 14 16 21 16 27 38 35 33 40 42 43 52 56 64 66 69 70 70 72 75 76 75 75 74 74 74 74 75 73 74 74 73 73 72
16 10 11 9 5 7 9 14 18 18 15 14 22 15 29 31 34 34 40 44 46 52 55 63 67 69 71 71 72 74 75 74 74 73 73 74 75 75 75 74 73 71 71 70
15 11 6 12 10 14 16 15 17 24 18 25 36 31 29 36 35 37 35 38 46 51 55 59 65 69 70 70 71 72 74 74 73 72 73 75 75 75 75 73 71 70 69 70
13 13 8 8 9 11 18 16 14 18 18 15 33 33 32 31 33 36 41 44 49 50 55 58 64 67 70 70 71 72 74 74 73 72 73 74 74 70 70 72 73 70 71 69
18 18 14 9 10 13 14 18 17 16 25 24 17 31 35 37 36 44 47 51 55 54 56 60 64 67 68 69 71 72 72 73 72 71 71 69 69 69 70 69 70 71 71 70
13 19 19 13 14 15 16 17 25 18 20 24 33 37 46 47 47 47 51 54 56 55 57 60 63 66 67 69 69 71 72 72 71 69 68 68 67 69 69 68 70 70 71 70
16 15 18 17 14 17 16 19 22 20 32 26 35 33 40 46 48 49 49 53 54 54 56 61 62 67 67 67 68 69 71 72 71 68 66 66 64 66 69 67 69 69 69 70
22 18 15 20 17 20 19 16 21 27 36 34 28 30 38 41 42 49 52 54 57 58 59 62 66 69 69 68 70 70 71 71 69 68 66 66 68 69 69 68 69 69 69 68
35 26 28 11 21 19 23 19 19 25 28 28 22 34 45 48 49 54 55 58 57 60 63 65 69 71 72 71 71 71 69 68 68 67 65 68 69 70 68 69 69 69 69 67
28 36 25 20 17 16 18 18 19 19 21 22 24 40 48 49 51 53 55 56 56 58 62 67 69 72 72 71 71 69 68 67 67 67 67 68 71 69 68 68 69 68 69 67
26 33 28 23 19 16 15 16 21 19 20 20 25 43 50 52 51 52 53 54 53 56 57 63 66 71 71 71 69 69 67 67 67 68 68 69 70 69 67 69 68 69 68 68
38 33 37 26 22 20 19 18 16 20 24 23 25 43 49 48 45 49 56 53 53 55 59 63 65 70 72 71 70 68 67 68 68 68 69 69 70 68 68 68 66 66 68 69
45 52 39 29 32 24 24 20 15 17 24 32 43 44 47 51 48 56 60 56 58 59 57 61 65 71 71 70 70 69 69 69 68 69 69 70 70 68 67 67 67 66 66 66
35 44 39 33 26 26 23 25 19 18 23 28 48 47 48 52 56 56 62 63 63 65 66 68 69 71 72 70 69 69 68 69 69 69 70 70 70 69 68 68 68 69 67 65
32 50 37 37 30 26 32 40 39 25 28 49 49 49 51 55 51 56 61 62 63 65 66 67 68 70 72 72 72 72 69 68 68 69 71 71 70 70 69 69 69 67 67 66
33 38 35 32 33 32 52 45 42 36 46 47 49 49 47 53 57 60 57 65 66 66 66 67 70 71 72 73 72 71 71 69 69 69 71 71 71 70 70 70 70 68 67 65
37 37 31 35 34 33 57 46 48 57 58 50 50 57 61 61 58 55 62 65 66 66 65 66 69 70 71 73 72 71 71 72 71 72 71 71 70 69 69 70 69 68 68 67
37 51 47 46 44 54 57 60 61 60 55 57 51 56 60 58 59 60 63 64 64 65 66 66 65 66 68 69 70 71 71 71 70 69 71 71 71 70 71 69 68 67 67 66
45 48 50 51 50 48 53 62 64 64 56 56 51 52 52 54 57 60 63 64 64 64 64 66 65 64 64 66 67 67 68 68 67 67 69 69 68 67 65 66 67 67 66 66
46 48 48 49 56 59 60 59 61 61 59 56 55 56 57 59 59 62 64 65 64 64 64 65 64 63 63 64 64 64 65 65 66 67 66 66 66 63 60 56 54 58 64 63
47 50 49 49 55 55 59 59 58 59 56 56 57 57 59 60 60 62 62 62 63 62 63 64 63 63 64 63 63 64 65 64 64 63 63 64 64 61 58 56 54 48 46 48
Lifted_Index
3 3 2 1 -0 -0 -0 0 0 1 0 0 -0 -0 -1 -0 -0 -1 -3 -3 -3 -4 -5 -6 -6 -7 -8 -9 -10 -10 -10 -9 -9 -8 -7 -5 -3 -2 -1 -1 -2 -2 -3 -3
2 2 1 0 -0 -1 -0 -0 -0 -0 -0 -0 -0 -0 -1 -1 -1 -1 -2 -3 -3 -4 -5 -6 -7 -8 -8 -9 -10 -11 -10 -9 -8 -8 -7 -6 -4 -3 -2 -3 -3 -3 -4 -4
1 1 0 -0 -0 -1 -1 -1 -1 -1 -1 -0 -0 -0 -1 -1 -0 -0 -1 -2 -3 -5 -6 -7 -8 -8 -9 -10 -11 -11 -11 -9 -9 -8 -7 -6 -5 -4 -4 -5 -5 -5 -5 -5
1 0 -0 -0 -0 -0 -1 -1 -1 -1 -1 -1 -1 -1 -1 -0 -0 -0 -0 -1 -3 -5 -6 -7 -8 -9 -9 -10 -11 -11 -11 -10 -9 -8 -7 -6 -5 -5 -6 -6 -6 -6 -5 -5
1 0 -0 0 0 0 -0 -1 -1 -1 -1 -1 -1 -1 -0 0 0 -1 -1 -1 -2 -5 -6 -7 -8 -9 -9 -10 -11 -11 -11 -10 -9 -8 -7 -6 -6 -6 -6 -7 -7 -6 -5 -5
1 1 0 1 1 0 -0 -1 -1 -1 -1 -1 -1 -1 -0 0 0 -0 -1 -1 -2 -4 -6 -7 -8 -9 -10 -10 -10 -11 -10 -9 -8 -7 -7 -7 -6 -6 -6 -6 -6 -5 -5 -4
1 1 1 1 1 0 -0 -1 -1 -1 -1 -1 -1 -1 -0 0 1 1 -0 -1 -2 -3 -5 -7 -9 -10 -10 -10 -10 -10 -10 -9 -8 -7 -7 -7 -7 -7 -6 -6 -5 -4 -4 -4
0 0 1 1 1 0 -0 -0 -1 -1 -1 -1 -0 -0 0 1 1 1 0 -1 -2 -3 -5 -7 -8 -10 -10 -10 -10 -10 -9 -9 -8 -7 -7 -7 -7 -6 -5 -5 -4 -4 -4 -4
-0 -0 -0 0 1 0 0 -0 -0 -1 -1 -1 -0 -0 0 1 1 1 -0 -1 -3 -3 -5 -6 -8 -10 -10 -10 -10 -10 -9 -9 -8 -7 -7 -7 -5 -4 -3 -3 -3 -3 -3 -3
-0 -0 -1 -0 -0 0 -0 -0 -0 -1 -1 -1 -1 -0 1 0 -0 -1 -2 -3 -4 -4 -5 -7 -8 -9 -9 -9 -9 -9 -9 -9 -8 -7 -7 -6 -4 -2 -2 -3 -3 -3 -3 -3
-0 -0 -0 -1 -1 -0 -0 -1 -1 -1 -1 -1 -1 -0 1 0 -1 -2 -3 -4 -5 -5 -6 -7 -8 -9 -9 -9 -9 -9 -9 -8 -8 -7 -6 -5 -3 -2 -2 -3 -3 -3 -3 -2
-0 -0 -0 -0 -1 -1 -0 -0 -1 -1 -1 -1 -1 -0 1 0 -2 -3 -4 -4 -5 -5 -6 -7 -8 -9 -9 -9 -8 -8 -8 -8 -7 -7 -6 -4 -3 -2 -3 -3 -3 -3 -2 -2
0 0 -0 -0 -1 -1 -0 -0 -0 -0 -0 -0 -1 -0 0 -0 -2 -4 -5 -5 -6 -6 -7 -8 -9 -9 -9 -9 -8 -8 -7 -7 -6 -6 -4 -4 -3 -3 -3 -3 -3 -3 -2 -2
1 0 0 -0 -0 -0 -0 -0 -0 -0 -0 -0 -1 -1 -1 -1 -2 -4 -5 -6 -6 -6 -7 -8 -10 -10 -10 -9 -8 -7 -6 -5 -5 -5 -4 -4 -4 -4 -3 -3 -3 -2 -2 -1
1 1 1 1 0 -0 -1 -1 -1 -0 -0 -0 -0 -1 -1 -1 -1 -3 -5 -5 -5 -6 -7 -8 -10 -10 -10 -9 -8 -7 -6 -5 -4 -4 -5 -5 -5 -4 -3 -3 -3 -2 -2 -2
2 1 1 1 1 0 -0 -1 -1 -1 -0 -0 -0 -1 -1 0 0 -2 -4 -5 -5 -5 -6 -8 -9 -10 -10 -9 -8 -7 -6 -5 -5 -5 -5 -5 -5 -4 -3 -2 -2 -2 -2 -2
0 0 1 1 1 1 -0 -0 -1 -1 -1 -1 -1 -0 -0 0 -0 -2 -4 -5 -5 -5 -6 -7 -8 -9 -10 -9 -8 -7 -6 -6 -6 -6 -6 -6 -5 -3 -3 -2 -2 -2 -2 -2
-1 -1 -0 1 1 1 0 -0 -1 -1 -1 -1 -1 -1 -1 -1 -2 -4 -5 -6 -6 -6 -6 -7 -8 -9 -9 -9 -8 -7 -7 -6 -6 -7 -6 -6 -5 -4 -3 -2 -2 -1 -1 -1
-1 -1 -1 -0 0 1 0 -1 -1 -1 -1 -1 -2 -2 -2 -4 -5 -5 -6 -7 -7 -7 -7 -7 -8 -9 -9 -8 -8 -7 -7 -7 -7 -7 -7 -6 -6 -5 -4 -3 -3 -2 -1 -1
-1 -1 -1 -1 -0 -0 -1 -1 -1 -1 -1 -2 -2 -2 -2 -4 -6 -6 -6 -7 -7 -7 -7 -7 -8 -9 -9 -8 -8 -8 -7 -7 -7 -7 -7 -7 -6 -5 -5 -5 -4 -3 -2 -1
-1 -1 -1 -1 -1 -1 -2 -2 -2 -2 -3 -3 -3 -2 -3 -5 -5 -5 -5 -6 -7 -6 -6 -7 -8 -9 -9 -9 -9 -8 -8 -7 -7 -7 -7 -7 -6 -5 -5 -5 -5 -3 -2 -2
-1 -2 -2 -2 -2 -2 -3 -3 -3 -4 -4 -4 -4 -5 -5 -6 -5 -5 -6 -7 -7 -6 -6 -7 -8 -8 -8 -8 -8 -8 -8 -8 -7 -7 -7 -7 -6 -5 -5 -5 -4 -4 -3 -3
-2 -2 -2 -2 -3 -3 -3 -4 -4 -5 -5 -5 -5 -5 -6 -6 -6 -6 -7 -7 -7 -6 -6 -6 -6 -7 -7 -7 -8 -8 -8 -7 -7 -7 -6 -6 -6 -5 -5 -5 -4 -3 -3 -3
-1 -1 -1 -3 -3 -3 -4 -5 -5 -5 -5 -5 -5 -5 -5 -5 -6 -6 -7 -7 -6 -6 -6 -6 -5 -5 -5 -5 -6 -6 -6 -6 -6 -5 -5 -5 -5 -5 -4 -4 -4 -3 -3 -2
-1 -0 -1 -2 -3 -3 -5 -6 -6 -6 -6 -6 -5 -5 -5 -6 -6 -6 -7 -6 -6 -5 -5 -5 -5 -4 -4 -3 -3 -4 -4 -4 -4 -4 -4 -3 -3 -3 -3 -3 -3 -2 -2 -2
-0 -0 -0 -1 -2 -3 -6 -7 -6 -6 -6 -6 -6 -6 -6 -6 -6 -7 -6 -6 -6 -5 -5 -4 -4 -4 -3 -2 -2 -2 -3 -3 -3 -3 -3 -2 -2 -2 -2 -2 -2 -2 -2 -1